Simultaneous Nadir Overpasses (SNOs) Predictions

Prediction of SNOs between GOES-16 and NOAA-20 Satellite Orbit:

Table of predicted SNOs for the next 14.0 days since TLE Epoch: 3/13/2021
Index Date Time (GOES-16) GOES-16 Lat,Lon NOAA-20 Lat,Lon Distance(km) Time Diff (sec)
1 03/14/2021 06:38:28 -0.04, -75.20 0.59, -77.91 309.63 80
2 03/15/2021 06:17:03 -0.04, -75.20 -0.45, -73.38 207.42 80
3 03/16/2021 18:39:00 0.04, -75.21 -0.71, -78.69 395.33 80
4 03/17/2021 18:22:54 0.04, -75.22 0.27, -74.15 122.24 80
5 03/19/2021 06:44:41 -0.04, -75.24 0.92, -79.41 476.27 80
6 03/20/2021 06:23:17 -0.04, -75.24 -0.11, -74.88 41.22 80
7 03/22/2021 18:26:28 0.03, -75.27 -0.07, -75.64 43.30 80
8 03/23/2021 18:10:23 0.02, -75.28 0.97, -71.11 474.79 80
9 03/25/2021 06:32:11 -0.01, -75.30 0.22, -76.38 122.66 80
10 03/26/2021 06:10:46 -0.01, -75.31 -0.82, -71.85 395.49 80
